Notices

What's New in latest Release from April 7th, 2021:

- Updated Glossary, including Speed of Maximum Gust, and Total Hourly Precipitation

- Updated national and regional climate services offices contacts and prices information

- Addition of station inventory lists for 1981-2010, 1971-2000, and 1961-1990 Normals.

If you haven't already, please take our survey and provide feedback about our website: https://eccc.sondage-survey.ca/f/LanguageSelection.aspx?s=442ca660-fcf1-47c0-95a9-59707d6fd709

Hourly Data Report for April 21, 2006

TORONTO CITY
ONTARIO

43°40'00.000" N
79°24'00.000" W
112.50 m
6158355
71508
XTO

Download Data

Hourly Data (April 2006)
Hourly Data Report for April 21, 2006
TIME
LST
Temp Definition
°C
Dew Point Definition
°C
Rel Hum Definition
%
Precip. Amount Definition
mm

Wind Dir Definition
10's deg

Wind Spd Definition
km/h
Visibility Definition
km
Stn Press Definition
kPa
Hmdx Definition


Wind Chill Definition


Weather Definition


00:00 15.6 -3.8 26   LegendMM LegendMM   100.20     LegendNANA
01:00 14.9 -2.5 30   LegendMM LegendMM   100.22     LegendNANA
02:00 13.9 -1.9 33   LegendMM LegendMM   100.21     LegendNANA
03:00 14.0 -2.7 31   LegendMM LegendMM   100.22     LegendNANA
04:00 13.7 -3.2 31   LegendMM LegendMM   100.22     LegendNANA
05:00 13.2 -2.8 33   LegendMM LegendMM   100.21     LegendNANA
06:00 12.3 0.7 45   LegendMM LegendMM   100.24     LegendNANA
07:00 12.2 1.4 48   LegendMM LegendMM   100.30     LegendNANA
08:00 11.7 1.9 51   LegendMM LegendMM   100.30     LegendNANA
09:00 12.6 2.0 48   LegendMM LegendMM   100.33     LegendNANA
10:00 13.2 2.1 47   LegendMM LegendMM   100.32     LegendNANA
11:00 12.9 1.7 46   LegendMM LegendMM   100.30     LegendNANA
12:00 12.6 1.8 48   LegendMM LegendMM   100.25     LegendNANA
13:00 13.9 1.7 44   LegendMM LegendMM   100.29     LegendNANA
14:00 15.1 1.0 38   LegendMM LegendMM   100.24     LegendNANA
15:00 15.4 1.8 40   LegendMM LegendMM   100.21     LegendNANA
16:00 16.7 1.9 37   LegendMM LegendMM   100.18     LegendNANA
17:00 17.9 2.3 35   LegendMM LegendMM   100.12     LegendNANA
18:00 18.7 2.6 34   LegendMM LegendMM   100.08     LegendNANA
19:00 19.3 2.8 33   LegendMM LegendMM   99.99     LegendNANA
20:00 19.7 3.5 34   LegendMM LegendMM   99.92     LegendNANA
21:00 18.9 4.4 38   LegendMM LegendMM   99.88     LegendNANA
22:00 14.8 5.8 55   LegendMM LegendMM   99.93     LegendNANA
23:00 12.7 7.0 68   LegendMM LegendMM   99.94     LegendNANA

Notes on Data Quality.

Legend

  • E = Estimated
  • M = Missing
  • NA = Not Available*
  • [empty] = Indicates an unobserved value
Date modified: